Regional Weather Roundup
Issued by NWS

Home | Current Version | Previous Version | Text Only | Print | Product List | Glossary Off
Versions: 1 2 3 4 5 6 7 8 9 10 11 12 13 14 15 16 17 18 19 20 21 22 23 24 25 26 27 28 29 30 31 32 33 34 35 36 37 38 39 40 41 42 43 44 45 46 47 48 49 50

000
ASUS43 KMPX 221210
RWRMN
WEATHER ROUNDUP FOR MINNESOTA
NATIONAL WEATHER SERVICE TWIN CITIES/CHANHASSEN MN
600 AM CST WED FEB 22 2017


NOTE: "FAIR" INDICATES FEW OR NO CLOUDS BELOW 12,000 FEET WITH NO
SIGNIFICANT WEATHER AND/OR OBSTRUCTIONS TO VISIBILITY. N/A MEANS
CURRENT SKY AND/OR WEATHER CONDITIONS ARE NOT AVAILABLE.

MNZ060>063-068>070-221300-
   Twin Cities Metro

CITY           SKY/WX    TMP DP  RH WIND       PRES   REMARKS
TWIN CITIES    CLOUDY    39  36  89 N6        29.59R
6HR MIN TEMP:  39; 6HR MAX TEMP:  45;

ST PAUL        MOCLDY    39  39 100 N3        29.60R
CRYSTAL        CLOUDY    38  36  92 NW6       29.58R FOG
BLAINE         FOG       39  39 100 CALM      29.59R VSB 1
LAKEVILLE      PTCLDY    36  36 100 CALM      29.59S
EDEN PRAIRIE   MOCLDY    40  39  97 CALM      29.58R
6HR MIN TEMP:  38; 6HR MAX TEMP:  46;

SOUTH ST PAUL  PTCLDY    41  39  95 CALM      29.58S
LAKE ELMO      FAIR      39  37  93 CALM      29.59S
$$
MNZ001>005-007-008-013>017-022>024-027-028-221300-
   Northwest Minnesota

CITY           SKY/WX    TMP DP  RH WIND       PRES   REMARKS
BEMIDJI        CLOUDY    33  33 100 CALM      29.66R FOG
HALLOCK        MIX PCPN  34  34 100 N12       29.74R WCI  25
ROSEAU         LGT SNOW  34  28  80 N5        29.72R WCI  30
WARROAD        LGT SNOW  34  28  80 N6        29.73R WCI  29
THIEF RVR FALL LGT RAIN  33  32  96 N7        29.70R WCI  27
CROOKSTON      CLOUDY    32  32 100 N10       29.71R FOG     WCI  24
FOSSTON        MIX PCPN  32  30  93 N6        29.66F VSB 3/4 WCI  26
DETROIT LAKES  CLOUDY    36  36 100 NE5       29.63F FOG
MOORHEAD       CLOUDY    32  32 100 N10       29.67R FOG     WCI  24
PARK RAPIDS    CLOUDY    36  33  89 N6        29.63S
MAHNOMEN       FOG       33  33 100 NE6       29.64F VSB 1   WCI  27
$$
MNZ006-009>011-018-025>026-221300-
   North Central Minnesota

CITY           SKY/WX    TMP DP  RH WIND       PRES   REMARKS
BAUDETTE       FLURRIES  32  30  92 N5        29.70R WCI  27
FLAG ISLAND    LGT SNOW  34  30  86 N3        29.71R
INTL FALLS     CLOUDY    33  30  88 NE6       29.66F WCI  28
6HR MIN TEMP:  30; 6HR MAX TEMP:  34; 6HR PCP: TRACE;

WASKISH        MIX PCPN  34  32  93 NE6       29.68R WCI  29
BIG FORK       CLOUDY    36  34  93 N5        29.64F
LONGVILLE      CLOUDY    34  34 100 CALM      29.64R
GRAND RAPIDS   CLOUDY    34  34 100 N5        29.65S FOG     WCI  30
CRANE LAKE     CLOUDY    28  28 100 CALM      29.68S FOG
ORR            CLOUDY    34  30  86 CALM      29.62S
COOK           CLOUDY    34  32  93 CALM      29.64F
WALKER         FAIR      33  33  99 CALM      29.64S FOG
$$
MNZ012-019>021-037-221300-
   Northeast Minnesota

CITY           SKY/WX    TMP DP  RH WIND       PRES   REMARKS
DULUTH         CLOUDY    37  35  92 NE6       29.61F
6HR MIN TEMP:  34; 6HR MAX TEMP:  42;

ELY            CLOUDY    32  32 100 CALM      29.63F
HIBBING        CLOUDY    30  30 100 CALM      29.63S FOG
EVELETH        CLOUDY    32  32  98 CALM      29.64S FOG
DULUTH HARBOR  CLOUDY    34  34 100 CALM      29.64F FOG
TWO HARBORS    CLOUDY    37  34  87 CALM      29.62S
SILVER BAY     CLOUDY    34  32  93 CALM      29.62S
GRAND MARAIS     N/A     37  34  89 CALM      29.65R
G MARAIS ARPRT CLOUDY    34  28  80 NW7       29.64R WCI  28
$$
MNZ029>031-032-039>041-046>048-054>057-064-221300-
   West Central Minnesota

CITY           SKY/WX    TMP DP  RH WIND       PRES   REMARKS
FERGUS FALLS   CLOUDY    36  36 100 N5        29.67R
WHEATON        CLOUDY    34  34 100 CALM      29.66R FOG
MORRIS         CLOUDY    34  34 100 N3        29.59F
ALEXANDRIA     CLOUDY    36  36 100 E6        29.60S
ELBOW LAKE     FAIR      34  33  99 CALM      29.61F
WADENA         CLOUDY    34  34 100 N8        29.62R WCI  27
GLENWOOD       CLOUDY    36  36 100 NE8       29.60F FOG
APPLETON       CLOUDY    36  34  93 CALM      29.61S
BENSON         CLOUDY    37  34  87 CALM      29.61F
ORTONVILLE     CLOUDY    36  34  93 CALM      29.61R
MADISON        CLOUDY    39  39 100 CALM      29.60S
WILLMAR        FAIR      41  39  93 CALM      29.62R
$$
MNZ033>034-036-042>043-049>051-058-059-221300-
   Central Minnesota

CITY           SKY/WX    TMP DP  RH WIND       PRES   REMARKS
ST CLOUD       CLOUDY    36  36 100 N5        29.61R FOG
6HR MIN TEMP:  32; 6HR MAX TEMP:  37;

SAUK CENTRE    FAIR      33  33 100 N3        29.63R FOG
PAYNESVILLE    CLOUDY    37  37 100 CALM      29.62R
AITKIN         CLOUDY    34  30  86 CALM      29.60F FOG
PINE RIVER     CLOUDY    34  34 100 NW5       29.67R WCI  30
BRAINERD       PTCLDY    33  33 100 N5        29.62F FOG     WCI  29
STAPLES        FOG       30  30 100 CALM      29.63R VSB 1
LONG PRAIRIE   FAIR      32  32 100 CALM      29.63R FOG
LITTLE FALLS   CLOUDY    32  32 100 CALM      29.63R FOG
LITCHFIELD     CLOUDY    39  39 100 CALM      29.61R
BUFFALO        PTCLDY    38  37  95 CALM      29.60F
MAPLE LAKE     PTCLDY    39  39 100 CALM      29.60S FOG
HUTCHINSON     PTCLDY    38  38  99 CALM      29.60R
$$
MNZ037-044-045-052-053-221300-
   East Central Minnesota

CITY           SKY/WX    TMP DP  RH WIND       PRES   REMARKS
PRINCETON      CLOUDY    36  36 100 CALM      29.61R FOG
MORA           MOCLDY    32  32 100 CALM      29.62S FOG
CAMBRIDGE      FOG       36  36 100 CALM      29.59R VSB 1/4
RUSH CITY      FOG       34  34 100 CALM      29.62R VSB 1/4
MOOSE LAKE     CLOUDY    32  32 100 N3        29.60F FOG
HINCKLEY       FOG       32  32 100 CALM      29.62S VSB 1/4
CLOQUET        CLOUDY    37  36  93 N6        29.61F
MCGREGOR       CLOUDY    34  34 100 CALM      29.63F
$$
MNZ071>073-080-081-089-090-097-098-221300-
   Southwest Minnesota

CITY           SKY/WX    TMP DP  RH WIND       PRES   REMARKS
MONTEVIDEO     CLOUDY    39  39 100 CALM      29.61F
GRANITE FALLS  MOCLDY    40  39  96 NW3       29.61F
CANBY          CLOUDY    39  38  97 S3        29.60F
MARSHALL       PTCLDY    40  37  89 N6        29.60R
REDWOOD FALLS  MOCLDY    40  37  89 NW3       29.59R
OLIVIA         CLOUDY    37  36  93 NW8       29.61R
PIPESTONE      CLOUDY    41  32  70 S6        29.59S
WINDOM         CLOUDY    39  36  87 S5        29.59F
WORTHINGTON    CLEAR     39  32  76 S7        29.60F
JACKSON        CLEAR     39  32  75 SW6       29.60F
TRACY          PTCLDY    43  38  80 SW8       29.59S
SLAYTON        PTCLDY    39  34  82 SW13      29.59F
$$
MNZ065>067-074>077-082>085-091>093-221300-
   South Central Minnesota

CITY           SKY/WX    TMP DP  RH WIND       PRES   REMARKS
MANKATO          N/A     37  35  92 SE7       29.59F
NEW ULM        PTCLDY    36  34  93 CALM      29.58F
ST JAMES       CLEAR     37  34  87 SE8       29.59F
FAIRMONT       CLEAR     36  33  89 S9        29.60F
GLENCOE        PTCLDY    37  38 100 CALM      29.58S FOG
FARIBAULT      PTCLDY    39  37  93 SE7       29.60F
OWATONNA       PTCLDY    39  36  87 SE12      29.59F
WASECA         PTCLDY    36  34  93 SE8       29.60F
ALBERT LEA     PTCLDY    37  34  87 SE3       29.62F
$$
MNZ078>079-086>088-094>096-221300-
   Southeast Minnesota

CITY           SKY/WX    TMP DP  RH WIND       PRES   REMARKS
ROCHESTER      CLOUDY    37  34  89 S8        29.65F
6HR MIN TEMP:  36; 6HR MAX TEMP:  42;

RED WING       PTCLDY    37  37 100 S5        29.61R
STANTON        CLEAR     42  37  81 S9        29.58F
DODGE CENTER   CLOUDY    36  34  93 CALM      29.63F
WINONA         MOCLDY    39  34  81 SE3       29.67F
AUSTIN         PTCLDY    37  32  81 S6        29.64F
PRESTON        CLOUDY    40  33  74 SW7       29.67R
$$
ABBREVIATIONS USED IN REMARKS
   TC - TEMPERATURES IN CELSIUS
  WCI - WIND CHILL INDEX
   HX - HEAT INDEX
  VSB - VISIBILITY
$$




USA.gov is the U.S. government's official web portal to all federal, state and local government web resources and services.